COSMO-SKYMED 1

Last updated on Sun Aug 09 2026 00:02:10 GMT+0000 (Coordinated Universal Time)

1 31598U 07023A 26220.66497762 .00001242 00000+0 11223-3 0 9997 2 31598 97.8841 52.9702 0001218 97.8541 262.2819 14.97315169 37642
UTC large
Height (km)
Speed (km/s)
/
Latitude / Longitude
Inclination (degrees)
Orbital Period (minutes)
Azimuth
Elevation
Range (km)
Doppler Factor

Next 0 passes for location: London (51.5072 / 0.1276)

No passes found over London.
COSMO-SKYMED 1